Juneau, WI

8:41 AM CDT on July 22, 2017 (GMT -0500)
Dodge County

Weather History for KUNU - December, 2013

Change the Weather History Date:

Monday, December 9, 2013

  Actual Average Record
Temperature  
Mean Temperature 6 °F -  
Max Temperature 17 °F 34 °F 47 °F (1984)
Min Temperature -5 °F 23 °F -8 °F (1977)
Degree Days  
Heating Degree Days 59    
Moisture  
Dew Point 1 °F    
Average Humidity 72    
Maximum Humidity 88    
Minimum Humidity 55    
Precipitation  
Precipitation 0.01 in - - ()
Sea Level Pressure  
Sea Level Pressure 30.02 in    
Wind  
Wind Speed 10 mph (WSW)    
Max Wind Speed 29 mph    
Max Gust Speed 34 mph    
Visibility 7 miles    
Events Snow    
Averages and records for this station are not official NWS values.
T = Trace of Precipitation, MM = Missing Value Source: NWS Daily Summary

Daily Weather History Graph

Daily Weather History Graph

Search for Another Location

Airport or City:

Trip Planner

Search our weather history database for the weather conditions in past years. The results will help you decide how hot, cold, wet, or windy it might be!

Date:

Astronomy

Dec. 09, 2013 Rise Set
Actual Time 7:15 AM CST 4:18 PM CST
Civil Twilight 6:43 AM CST 4:51 PM CST
Nautical Twilight 6:07 AM CST 5:27 PM CST
Astronomical Twilight 5:32 AM CST 6:01 PM CST
Moon 11:58 AM CST (12/9) No Moon Set
Length of Visible Light 10h 07m
Length of Day
9h 02m
Waxing Crescent, 51% of the Moon is Illuminated
Dec 9
Waxing Crescent
Dec 17
Full
Dec 25
Last Quarter
Jan 1
New
Jan 7
First Quarter

Hourly Weather History & Observations

Time (CST) Temp. Windchill Dew Point Humidity Pressure Visibility Wind Dir Wind Speed Gust Speed Precip Events Conditions
12:15 AM 17.1 °F 6.6 °F 14.0 °F 88% 29.92 in 7.0 mi NNW 8.1 mph - N/A Snow Light Snow
12:35 AM 17.1 °F 7.6 °F 14.0 °F 88% 29.90 in 5.0 mi NNW 6.9 mph - N/A Snow Light Snow
12:55 AM 17.1 °F 10.0 °F 14.0 °F 88% 29.90 in 3.0 mi NW 4.6 mph - N/A Snow Light Snow
1:15 AM 16.7 °F 8.3 °F 13.6 °F 88% 29.90 in 4.0 mi NW 5.8 mph - N/A Snow Light Snow
1:35 AM 16.5 °F 11.0 °F 13.1 °F 86% 29.90 in 4.0 mi WNW 3.5 mph - N/A Snow Light Snow
1:55 AM 15.8 °F 10.2 °F 12.7 °F 88% 29.90 in 1.8 mi WNW 3.5 mph - N/A Snow Light Snow
2:15 AM 15.8 °F - 12.7 °F 88% 29.90 in 1.5 mi Calm Calm - N/A Snow Light Snow
2:35 AM 15.6 °F 10.0 °F 12.2 °F 86% 29.90 in 1.2 mi West 3.5 mph - N/A Snow Light Snow
2:55 AM 15.3 °F 9.6 °F 12.0 °F 87% 29.91 in 2.5 mi West 3.5 mph - N/A Snow Light Snow
3:15 AM 14.9 °F 7.5 °F 11.8 °F 88% 29.91 in 3.0 mi West 4.6 mph - N/A Snow Light Snow
3:35 AM 14.5 °F 4.6 °F 10.9 °F 86% 29.91 in 7.0 mi West 6.9 mph - N/A Snow Light Snow
3:55 AM 14.0 °F 3.9 °F 10.4 °F 86% 29.92 in 10.0 mi WSW 6.9 mph - N/A Snow Light Snow
4:35 AM 12.9 °F 0.7 °F 9.3 °F 86% 29.92 in 3.0 mi WSW 9.2 mph - N/A Snow Light Snow
4:55 AM 11.8 °F 3.9 °F 8.1 °F 85% 29.91 in 10.0 mi West 4.6 mph - N/A Snow Light Snow
5:15 AM 10.2 °F -0.6 °F 6.6 °F 85% 29.92 in 10.0 mi WSW 6.9 mph - N/A Snow Light Snow
5:35 AM 8.1 °F -4.3 °F 4.6 °F 86% 29.92 in 10.0 mi WSW 8.1 mph - N/A   Clear
5:55 AM 8.6 °F -3.7 °F 5.5 °F 87% 29.92 in 10.0 mi WSW 8.1 mph - N/A   Clear
6:15 AM 7.2 °F -4.3 °F 3.6 °F 85% 29.93 in 10.0 mi SW 6.9 mph - N/A   Clear
6:35 AM 7.3 °F -5.2 °F 3.9 °F 86% 29.93 in 10.0 mi WSW 8.1 mph - N/A   Clear
6:55 AM 5.7 °F -6.1 °F 1.9 °F 84% 29.94 in 10.0 mi SW 6.9 mph - N/A   Clear
7:15 AM 5.5 °F -5.0 °F 1.4 °F 83% 29.96 in 10.0 mi SW 5.8 mph - N/A   Clear
7:35 AM 5.2 °F -8.9 °F 1.4 °F 84% 29.96 in 10.0 mi SW 9.2 mph - N/A   Clear
7:55 AM 4.8 °F -8.3 °F 0.5 °F 82% 29.97 in 10.0 mi WSW 8.1 mph - N/A   Clear
8:15 AM 5.5 °F -7.4 °F 1.6 °F 84% 29.99 in 10.0 mi WSW 8.1 mph - N/A   Clear
8:35 AM 7.5 °F -6.0 °F 3.7 °F 85% 30.00 in 10.0 mi WSW 9.2 mph - N/A   Clear
8:55 AM 8.6 °F -5.5 °F 5.0 °F 85% 30.00 in 10.0 mi WSW 10.4 mph - N/A   Clear
9:15 AM 10.0 °F -4.5 °F 6.4 °F 85% 30.00 in 10.0 mi SW 11.5 mph - N/A   Clear
9:35 AM 11.1 °F -5.1 °F 6.8 °F 83% 30.01 in 0.2 mi SW 15.0 mph - N/A Snow Light Snow
9:55 AM 11.8 °F -4.2 °F 6.1 °F 78% 30.01 in 0.5 mi WSW 15.0 mph - N/A Snow Light Snow
10:15 AM 12.4 °F -3.5 °F 6.4 °F 77% 30.00 in 0.2 mi SW 15.0 mph - N/A Snow Snow
10:35 AM 12.9 °F -2.2 °F 5.9 °F 74% 30.00 in 0.2 mi WSW 13.8 mph - N/A Snow Heavy Snow
10:55 AM 13.1 °F -1.4 °F 5.7 °F 72% 29.99 in 0.2 mi WSW 12.7 mph - N/A Snow Heavy Snow
11:15 AM 13.8 °F -2.2 °F 5.7 °F 70% 29.99 in 0.2 mi WSW 16.1 mph - N/A Snow Light Snow
11:35 AM 14.0 °F -2.0 °F 6.3 °F 71% 30.00 in 0.5 mi SW 16.1 mph 21.9 mph N/A Snow Light Snow
11:55 AM 14.4 °F -2.5 °F 5.9 °F 69% 29.99 in 0.5 mi SW 18.4 mph 25.3 mph N/A Snow Light Snow
12:15 PM 14.7 °F -2.5 °F 5.4 °F 66% 29.98 in 0.8 mi SW 19.6 mph 23.0 mph N/A Snow Light Snow
12:35 PM 15.3 °F -1.3 °F 4.5 °F 62% 29.98 in 0.8 mi SW 18.4 mph - N/A Snow Light Snow
12:55 PM 15.6 °F -2.9 °F 4.3 °F 61% 29.99 in 1.8 mi WSW 24.2 mph 28.8 mph N/A Snow Light Snow
1:15 PM 15.6 °F -1.8 °F 4.5 °F 61% 29.99 in 4.0 mi SW 20.7 mph - N/A   Haze
1:35 PM 14.9 °F -4.3 °F 3.2 °F 60% 29.99 in 4.0 mi SW 25.3 mph 32.2 mph N/A   Haze
1:55 PM 15.1 °F -4.4 °F 3.4 °F 60% 30.00 in 5.0 mi WSW 26.5 mph 33.4 mph N/A   Haze
2:15 PM 14.2 °F -6.2 °F 1.8 °F 58% 30.01 in 5.0 mi WSW 28.8 mph 34.5 mph N/A   Haze
2:35 PM 13.6 °F -5.9 °F 1.0 °F 57% 30.02 in 7.0 mi WSW 25.3 mph 31.1 mph N/A   Clear
2:55 PM 12.7 °F -6.4 °F -0.0 °F 57% 30.02 in 10.0 mi WSW 23.0 mph - N/A   Clear
3:15 PM 11.8 °F -7.6 °F -1.3 °F 56% 30.04 in 10.0 mi WSW 23.0 mph - N/A   Clear
3:35 PM 11.1 °F -8.5 °F -2.0 °F 56% 30.05 in 10.0 mi WSW 23.0 mph 26.5 mph N/A   Clear
3:55 PM 10.0 °F -9.1 °F -3.1 °F 55% 30.07 in 10.0 mi WSW 20.7 mph 31.1 mph N/A   Clear
4:15 PM 8.8 °F -10.8 °F -4.0 °F 56% 30.08 in 10.0 mi WSW 20.7 mph 24.2 mph N/A   Clear
4:35 PM 7.9 °F -10.4 °F -5.1 °F 56% 30.08 in 10.0 mi WSW 17.3 mph - N/A   Clear
4:55 PM 7.0 °F -11.0 °F -5.8 °F 56% 30.10 in 10.0 mi WSW 16.1 mph - N/A   Clear
5:15 PM 5.9 °F -10.5 °F -6.2 °F 58% 30.11 in 10.0 mi SW 12.7 mph - N/A   Clear
5:35 PM 5.7 °F -11.4 °F -6.7 °F 57% 30.11 in 10.0 mi SW 13.8 mph - N/A   Clear
5:55 PM 4.6 °F -11.3 °F -6.9 °F 59% 30.12 in 10.0 mi SW 11.5 mph - N/A   Clear
6:15 PM 3.9 °F -12.2 °F -7.6 °F 59% 30.12 in 10.0 mi SW 11.5 mph - N/A   Clear
6:35 PM 3.2 °F -14.6 °F -8.0 °F 60% 30.13 in 10.0 mi SW 13.8 mph - N/A   Clear
6:55 PM 3.2 °F -15.9 °F -8.5 °F 58% 30.13 in 10.0 mi SW 16.1 mph - N/A   Clear
7:15 PM 2.7 °F -14.5 °F -8.9 °F 59% 30.13 in 10.0 mi SW 12.7 mph - N/A   Clear
7:35 PM 1.8 °F -15.7 °F -9.0 °F 61% 30.14 in 10.0 mi SW 12.7 mph - N/A   Clear
7:55 PM 1.0 °F -16.6 °F -9.2 °F 62% 30.14 in 10.0 mi WSW 12.7 mph - N/A   Clear
8:15 PM 0.5 °F -17.3 °F -9.4 °F 63% 30.14 in 10.0 mi SW 12.7 mph - N/A   Clear
8:35 PM -0.4 °F -19.2 °F -9.9 °F 64% 30.14 in 10.0 mi SW 13.8 mph - N/A   Clear
8:55 PM -0.4 °F -17.6 °F -10.3 °F 63% 30.14 in 10.0 mi SW 11.5 mph - N/A   Clear
9:15 PM -1.7 °F -20.0 °F -11.0 °F 64% 30.13 in 10.0 mi WSW 12.7 mph - N/A   Clear
9:35 PM -2.0 °F -19.6 °F -11.0 °F 66% 30.13 in 10.0 mi WSW 11.5 mph - N/A   Clear
9:55 PM -2.7 °F -19.6 °F -11.6 °F 66% 30.12 in 10.0 mi WSW 10.4 mph - N/A   Clear
10:15 PM -2.9 °F -19.8 °F -11.2 °F 68% 30.12 in 10.0 mi SW 10.4 mph - N/A   Clear
10:35 PM -3.3 °F -19.3 °F -11.4 °F 68% 30.11 in 10.0 mi SW 9.2 mph - N/A   Clear
10:55 PM -4.4 °F -18.2 °F -12.1 °F 69% 30.12 in 10.0 mi SW 6.9 mph - N/A   Clear
11:15 PM -4.4 °F -20.6 °F -12.1 °F 69% 30.12 in 10.0 mi SW 9.2 mph - N/A   Clear
11:35 PM -5.4 °F -20.8 °F -12.8 °F 70% 30.12 in 10.0 mi SW 8.1 mph - N/A   Clear
11:55 PM -5.3 °F -21.7 °F -12.8 °F 70% 30.12 in 10.0 mi SW 9.2 mph - N/A   Clear